sat.trackr.live / text

‹ back to catalog

IRIDE-MS1-EAGLET 2-4

NORAD 66698 · 2025-276AJ

PAYLOAD ACTIVE UNKNOWN

§ Identity

Operator
Country
IT
Launch date
2025-11-28
Launch site
AFWTR
Launch vehicle
Mass (kg)
RCS (m²)

External: N2YO · Heavens-Above · Gunter

§ Orbital elements

Epoch: 2026-09-20T11:09:10.756512Z

Period
94.70 min
Inclination
97.4103°
Eccentricity
0.0004825
Mean motion
15.20623648 rev/d
Perigee alt
500.6 km
Apogee alt
507.3 km
Semi-major
6,882.1 km
B*
1.7904e-4
RAAN
335.3336°
Arg perigee
48.8746°
Mean anomaly
311.2905°
Rev number
4,489

§ Raw data

IRIDE-MS1-EAGLET 2-41 66698U 25276AJ  26263.46470783  .00003859  00000+0  17904-3 0  99932 66698  97.4103 335.3336 0004825  48.8746 311.2905 15.20623648 44896

JSON: /api/v1/satellites/66698 · /tle

For live sub-satellite position, see the globe view (requires WebGL).

§ Visibility from observer

Set your observer location to see the next 7 days of passes ≥ 10°. The values pass through the URL so the page stays shareable.

No JS? Fill the form by hand. The geolocation button needs JavaScript.

§ Radio — SatNOGS DB

ModeDescriptionDownlinkUplink
FM S-band telemetry 2.260 GHz

1 transmitter · refreshed weekly from db.satnogs.org